UAL155 PTPN-PTSA

Flight info

Callsign UAL155
Flight time 0h 52m
Altitude 31000
Route AXTEN AMZAP
Aircraft B738/M-SDE2E3FGHIRWXY/LB1

Departure

Time 2026-04-21 02:21
Airport Pohnpei International Airport (PTPN)

Arrival

Time 2026-04-21 03:14
Airport Kosrae International Airport (PTSA)
Time Latitude Longitude Altitude Speed Heading
2026-04-21 02:00 6.98196 158.20331 16 ft 0 kts 178°
2026-04-21 02:12 6.98211 158.20331 19 ft 2 kts 179°
2026-04-21 02:12 6.98227 158.20331 19 ft 2 kts 179°
2026-04-21 02:12 6.98238 158.20331 17 ft 2 kts 181°
2026-04-21 02:13 6.98254 158.20331 20 ft 2 kts 197°
2026-04-21 02:13 6.98264 158.20343 19 ft 2 kts 217°
2026-04-21 02:13 6.98268 158.20356 21 ft 2 kts 237°
2026-04-21 02:13 6.98274 158.20366 20 ft 0 kts 355°
2026-04-21 02:17 6.98278 158.20366 19 ft 2 kts 355°
2026-04-21 02:17 6.98307 158.20363 17 ft 6 kts 355°
2026-04-21 02:17 6.98325 158.20362 17 ft 0 kts 357°
2026-04-21 02:18 6.98350 158.20361 17 ft 8 kts 356°
2026-04-21 02:19 6.98431 158.20360 19 ft 14 kts
2026-04-21 02:19 6.98500 158.20316 16 ft 13 kts 289°
2026-04-21 02:19 6.98512 158.20232 16 ft 11 kts 267°
2026-04-21 02:19 6.98492 158.20168 17 ft 9 kts 245°
2026-04-21 02:20 6.98474 158.20111 17 ft 9 kts 282°
2026-04-21 02:20 6.98509 158.20115 17 ft 6 kts 62°
2026-04-21 02:20 6.98514 158.20136 16 ft 0 kts 84°
2026-04-21 02:20 6.98516 158.20183 18 ft 33 kts 89°
2026-04-21 02:21 6.98513 158.20687 17 ft 109 kts 90°
2026-04-21 02:21 6.98523 158.21677 101 ft 167 kts 88°
2026-04-21 02:21 6.98536 158.22895 892 ft 176 kts 93°
2026-04-21 02:21 6.98177 158.24049 1968 ft 170 kts 117°
2026-04-21 02:22 6.97566 158.25016 3018 ft 164 kts 115°
2026-04-21 02:22 6.97098 158.26150 3528 ft 189 kts 109°
2026-04-21 02:22 6.96603 158.27488 3808 ft 220 kts 109°
2026-04-21 02:22 6.96050 158.29010 4198 ft 241 kts 109°
2026-04-21 02:23 6.95448 158.30680 4619 ft 262 kts 109°
2026-04-21 02:23 6.94821 158.32423 5517 ft 265 kts 109°
2026-04-21 02:23 6.94191 158.34177 6456 ft 269 kts 109°
2026-04-21 02:23 6.93551 158.35967 7317 ft 273 kts 109°
2026-04-21 02:24 6.92904 158.37775 8240 ft 276 kts 109°
2026-04-21 02:24 6.92252 158.39602 9116 ft 279 kts 109°
2026-04-21 02:24 6.91592 158.41454 9921 ft 283 kts 109°
2026-04-21 02:24 6.90913 158.43358 10415 ft 299 kts 109°
2026-04-21 02:25 6.90182 158.45410 10572 ft 324 kts 109°
2026-04-21 02:25 6.89402 158.47598 11004 ft 337 kts 109°
2026-04-21 02:25 6.88604 158.49838 11698 ft 342 kts 109°
2026-04-21 02:25 6.87798 158.52099 12441 ft 345 kts 109°
2026-04-21 02:26 6.86985 158.54380 13164 ft 348 kts 109°
2026-04-21 02:26 6.86163 158.56683 13829 ft 352 kts 109°
2026-04-21 02:26 6.85332 158.59012 14426 ft 356 kts 109°
2026-04-21 02:26 6.84494 158.61366 15014 ft 359 kts 109°
2026-04-21 02:27 6.83647 158.63743 15606 ft 363 kts 109°
2026-04-21 02:27 6.82790 158.66144 16246 ft 366 kts 109°
2026-04-21 02:27 6.81928 158.68570 16844 ft 370 kts 109°
2026-04-21 02:27 6.81080 158.71030 17368 ft 374 kts 108°
2026-04-21 02:28 6.80248 158.73488 17882 ft 378 kts 108°
2026-04-21 02:28 6.79402 158.76001 18366 ft 381 kts 108°
2026-04-21 02:28 6.78549 158.78537 18804 ft 384 kts 108°
2026-04-21 02:28 6.77689 158.81088 19238 ft 387 kts 108°
2026-04-21 02:29 6.76821 158.83659 19659 ft 389 kts 108°
2026-04-21 02:29 6.75946 158.86245 20069 ft 392 kts 108°
2026-04-21 02:29 6.75064 158.88851 20461 ft 395 kts 108°
2026-04-21 02:29 6.74173 158.91479 20846 ft 398 kts 108°
2026-04-21 02:30 6.73277 158.94122 21266 ft 400 kts 108°
2026-04-21 02:30 6.72377 158.96776 21694 ft 401 kts 108°
2026-04-21 02:30 6.71472 158.99443 22060 ft 404 kts 108°
2026-04-21 02:30 6.70560 159.02130 22411 ft 407 kts 108°
2026-04-21 02:31 6.69644 159.04830 22767 ft 409 kts 108°
2026-04-21 02:31 6.68722 159.07544 23120 ft 412 kts 108°
2026-04-21 02:31 6.67794 159.10279 23461 ft 414 kts 108°
2026-04-21 02:31 6.66861 159.13025 23735 ft 416 kts 108°
2026-04-21 02:32 6.65923 159.15786 24002 ft 418 kts 108°
2026-04-21 02:32 6.64980 159.18561 24263 ft 420 kts 108°
2026-04-21 02:32 6.64032 159.21351 24513 ft 423 kts 108°
2026-04-21 02:32 6.63077 159.24161 24722 ft 426 kts 108°
2026-04-21 02:33 6.62116 159.26987 24983 ft 428 kts 108°
2026-04-21 02:33 6.61152 159.29822 25234 ft 430 kts 108°
2026-04-21 02:33 6.60183 159.32671 25474 ft 432 kts 108°
2026-04-21 02:33 6.59209 159.35536 25705 ft 434 kts 108°
2026-04-21 02:34 6.58230 159.38412 25921 ft 436 kts 108°
2026-04-21 02:34 6.57248 159.41299 26142 ft 438 kts 108°
2026-04-21 02:34 6.56259 159.44202 26359 ft 440 kts 108°
2026-04-21 02:34 6.55267 159.47118 26570 ft 441 kts 108°
2026-04-21 02:35 6.54271 159.50042 26770 ft 443 kts 108°
2026-04-21 02:35 6.53271 159.52977 26984 ft 445 kts 108°
2026-04-21 02:35 6.52266 159.55927 27183 ft 447 kts 108°
2026-04-21 02:35 6.51257 159.58889 27374 ft 448 kts 108°
2026-04-21 02:36 6.50245 159.61858 27563 ft 450 kts 108°
2026-04-21 02:36 6.49229 159.64840 27752 ft 452 kts 108°
2026-04-21 02:36 6.48210 159.67829 27939 ft 453 kts 108°
2026-04-21 02:36 6.47186 159.70831 28134 ft 454 kts 108°
2026-04-21 02:37 6.46174 159.73798 28309 ft 455 kts 108°
2026-04-21 02:37 6.45145 159.76814 28484 ft 457 kts 108°
2026-04-21 02:37 6.44112 159.79839 28650 ft 458 kts 108°
2026-04-21 02:37 6.43077 159.82873 28813 ft 460 kts 108°
2026-04-21 02:38 6.42037 159.85919 28984 ft 461 kts 108°
2026-04-21 02:38 6.40997 159.88964 29219 ft 460 kts 107°
2026-04-21 02:38 6.39958 159.92004 29533 ft 458 kts 107°
2026-04-21 02:38 6.38926 159.95025 29780 ft 457 kts 107°
2026-04-21 02:39 6.37891 159.98056 29939 ft 459 kts 107°
2026-04-21 02:39 6.36854 160.01090 30090 ft 459 kts 107°
2026-04-21 02:39 6.35817 160.04124 30295 ft 458 kts 107°
2026-04-21 02:39 6.34783 160.07145 30520 ft 457 kts 107°
2026-04-21 02:40 6.33752 160.10161 30716 ft 456 kts 107°
2026-04-21 02:40 6.32720 160.13177 30852 ft 457 kts 107°
2026-04-21 02:40 6.31682 160.16211 30868 ft 461 kts 108°
2026-04-21 02:41 6.29581 160.22353 30891 ft 468 kts 107°
2026-04-21 02:41 6.27451 160.28578 30883 ft 475 kts 107°
2026-04-21 02:42 6.25286 160.34897 30882 ft 480 kts 107°
2026-04-21 02:42 6.23101 160.41272 30878 ft 484 kts 107°
2026-04-21 02:43 6.20900 160.47692 30871 ft 487 kts 107°
2026-04-21 02:43 6.18704 160.54093 30867 ft 488 kts 107°
2026-04-21 02:44 6.16493 160.60537 30871 ft 488 kts 108°
2026-04-21 02:44 6.14281 160.66980 30867 ft 487 kts 108°
2026-04-21 02:45 6.12071 160.73416 30869 ft 487 kts 108°
2026-04-21 02:45 6.09860 160.79852 30871 ft 487 kts 108°
2026-04-21 02:46 6.07649 160.86286 30872 ft 487 kts 108°
2026-04-21 02:46 6.05436 160.92720 30868 ft 487 kts 108°
2026-04-21 02:47 6.03222 160.99157 30872 ft 487 kts 108°
2026-04-21 02:47 6.01007 161.05593 30871 ft 487 kts 108°
2026-04-21 02:48 5.98791 161.12029 30869 ft 487 kts 108°
2026-04-21 02:48 5.96575 161.18464 30868 ft 488 kts 108°
2026-04-21 02:49 5.94358 161.24898 30871 ft 487 kts 108°
2026-04-21 02:49 5.93247 161.28121 30729 ft 489 kts 108°
2026-04-21 02:49 5.92152 161.31295 30600 ft 469 kts 108°
2026-04-21 02:49 5.91105 161.34327 30215 ft 453 kts 108°
2026-04-21 02:50 5.90082 161.37291 29609 ft 444 kts 108°
2026-04-21 02:50 5.89082 161.40189 28985 ft 435 kts 108°
2026-04-21 02:50 5.88103 161.43026 28371 ft 426 kts 108°
2026-04-21 02:50 5.87142 161.45812 27771 ft 418 kts 108°
2026-04-21 02:51 5.86199 161.48547 27183 ft 411 kts 108°
2026-04-21 02:51 5.85270 161.51240 26606 ft 404 kts 108°
2026-04-21 02:51 5.84356 161.53886 26043 ft 398 kts 108°
2026-04-21 02:51 5.83453 161.56503 25630 ft 395 kts 108°
2026-04-21 02:52 5.82555 161.59103 25236 ft 393 kts 108°
2026-04-21 02:52 5.81663 161.61687 24835 ft 391 kts 108°
2026-04-21 02:52 5.80774 161.64262 24430 ft 390 kts 108°
2026-04-21 02:52 5.79886 161.66833 24022 ft 389 kts 109°
2026-04-21 02:53 5.79000 161.69396 23619 ft 388 kts 109°
2026-04-21 02:53 5.78130 161.71914 23193 ft 387 kts 109°
2026-04-21 02:53 5.77252 161.74455 22763 ft 384 kts 109°
2026-04-21 02:53 5.76379 161.76979 22348 ft 381 kts 109°
2026-04-21 02:54 5.75513 161.79483 21957 ft 378 kts 109°
2026-04-21 02:54 5.74654 161.81965 21563 ft 375 kts 109°
2026-04-21 02:54 5.73801 161.84434 21175 ft 373 kts 109°
2026-04-21 02:54 5.72953 161.86884 20793 ft 370 kts 109°
2026-04-21 02:55 5.72111 161.89317 20413 ft 368 kts 109°
2026-04-21 02:55 5.71276 161.91731 20035 ft 365 kts 109°
2026-04-21 02:55 5.70443 161.94137 19659 ft 363 kts 109°
2026-04-21 02:55 5.69615 161.96529 19284 ft 362 kts 109°
2026-04-21 02:56 5.68791 161.98908 18899 ft 360 kts 109°
2026-04-21 02:56 5.67153 162.03638 18139 ft 358 kts 109°
2026-04-21 02:56 5.66337 162.05994 17717 ft 356 kts 110°
2026-04-21 02:57 5.65528 162.08330 17331 ft 353 kts 110°
2026-04-21 02:57 5.64723 162.10654 16954 ft 351 kts 110°
2026-04-21 02:57 5.63926 162.12953 16655 ft 346 kts 110°
2026-04-21 02:57 5.63139 162.15225 16303 ft 344 kts 110°
2026-04-21 02:58 5.62356 162.17483 15955 ft 341 kts 110°
2026-04-21 02:58 5.61579 162.19724 15603 ft 339 kts 110°
2026-04-21 02:58 5.60806 162.21955 15248 ft 337 kts 110°
2026-04-21 02:58 5.60046 162.24145 14901 ft 336 kts 110°
2026-04-21 02:59 5.59281 162.26352 14554 ft 334 kts 110°
2026-04-21 02:59 5.58518 162.28552 14191 ft 333 kts 110°
2026-04-21 02:59 5.57757 162.30746 13830 ft 333 kts 110°
2026-04-21 02:59 5.56997 162.32936 13453 ft 332 kts 110°
2026-04-21 03:00 5.56241 162.35115 13081 ft 330 kts 110°
2026-04-21 03:00 5.55489 162.37283 12718 ft 328 kts 110°
2026-04-21 03:00 5.54741 162.39439 12356 ft 326 kts 110°
2026-04-21 03:00 5.53998 162.41580 12004 ft 324 kts 110°
2026-04-21 03:01 5.53259 162.43708 11655 ft 322 kts 110°
2026-04-21 03:01 5.52523 162.45826 11306 ft 321 kts 110°
2026-04-21 03:01 5.51833 162.47951 10948 ft 320 kts 103°
2026-04-21 03:01 5.51731 162.50184 10566 ft 322 kts 88°
2026-04-21 03:02 5.51894 162.52404 10378 ft 316 kts 87°
2026-04-21 03:02 5.52069 162.54579 10218 ft 309 kts 87°
2026-04-21 03:02 5.52184 162.56018 10124 ft 303 kts 87°
2026-04-21 03:02 5.52345 162.58103 9992 ft 296 kts 88°
2026-04-21 03:03 5.52495 162.60107 9925 ft 286 kts 88°
2026-04-21 03:03 5.52642 162.62151 9465 ft 291 kts 88°
2026-04-21 03:03 5.52783 162.64152 9126 ft 292 kts 88°
2026-04-21 03:03 5.52923 162.66179 8836 ft 290 kts 88°
2026-04-21 03:04 5.53062 162.68195 8540 ft 289 kts 87°
2026-04-21 03:04 5.53200 162.70206 8234 ft 288 kts 88°
2026-04-21 03:04 5.53337 162.72207 7965 ft 287 kts 88°
2026-04-21 03:04 5.53473 162.74206 7677 ft 287 kts 88°
2026-04-21 03:05 5.53608 162.76201 7392 ft 286 kts 88°
2026-04-21 03:05 5.53744 162.78194 7105 ft 286 kts 88°
2026-04-21 03:05 5.53879 162.80187 6816 ft 286 kts 88°
2026-04-21 03:05 5.54014 162.82175 6517 ft 286 kts 88°
2026-04-21 03:06 5.54149 162.84168 6226 ft 286 kts 88°
2026-04-21 03:06 5.54283 162.86157 5906 ft 286 kts 88°
2026-04-21 03:06 5.54418 162.88144 5611 ft 285 kts 88°
2026-04-21 03:06 5.54552 162.90126 5324 ft 284 kts 88°
2026-04-21 03:07 5.54685 162.92096 5054 ft 282 kts 88°
2026-04-21 03:07 5.54818 162.94058 4774 ft 282 kts 88°
2026-04-21 03:07 5.54950 162.96018 4489 ft 281 kts 88°
2026-04-21 03:07 5.55083 162.97971 4214 ft 280 kts 88°
2026-04-21 03:08 5.55214 162.99918 3921 ft 277 kts 88°
2026-04-21 03:08 5.55089 163.01792 3621 ft 264 kts 112°
2026-04-21 03:08 5.54253 163.03310 3643 ft 235 kts 129°
2026-04-21 03:08 5.53261 163.04510 3598 ft 212 kts 134°
2026-04-21 03:09 5.52318 163.05580 3446 ft 199 kts 134°
2026-04-21 03:09 5.51424 163.06617 3122 ft 197 kts 133°
2026-04-21 03:09 5.50466 163.07560 2927 ft 183 kts 155°
2026-04-21 03:09 5.49279 163.07611 2894 ft 172 kts 206°
2026-04-21 03:10 5.48252 163.06995 2939 ft 174 kts 214°
2026-04-21 03:10 5.47303 163.06190 2755 ft 181 kts 222°
2026-04-21 03:10 5.46378 163.05350 2578 ft 176 kts 221°
2026-04-21 03:10 5.45501 163.04580 2429 ft 161 kts 220°
2026-04-21 03:11 5.44664 163.03852 2235 ft 158 kts 220°
2026-04-21 03:11 5.43825 163.03122 2019 ft 162 kts 220°
2026-04-21 03:11 5.42972 163.02380 1844 ft 159 kts 220°
2026-04-21 03:11 5.42165 163.01678 1608 ft 148 kts 220°
2026-04-21 03:12 5.41412 163.01022 1405 ft 140 kts 220°
2026-04-21 03:12 5.40657 163.00367 1243 ft 146 kts 220°
2026-04-21 03:12 5.39856 162.99700 1061 ft 153 kts 219°
2026-04-21 03:12 5.39047 162.99043 881 ft 145 kts 217°
2026-04-21 03:13 5.38239 162.98458 603 ft 142 kts 217°
2026-04-21 03:13 5.37457 162.97876 424 ft 144 kts 219°
2026-04-21 03:13 5.36702 162.97199 246 ft 150 kts 229°
2026-04-21 03:13 5.36036 162.96344 40 ft 157 kts 236°
2026-04-21 03:14 5.35476 162.95506 16 ft 122 kts 236°
2026-04-21 03:14 5.35257 162.95176 20 ft 0 kts 236°
2026-04-21 03:14 5.35255 162.95175 20 ft 1 kts 214°
2026-04-21 03:14 5.35253 162.95187 20 ft 2 kts 73°
2026-04-21 03:15 5.35307 162.95266 20 ft 24 kts 56°
2026-04-21 03:15 5.35430 162.95450 16 ft 21 kts 63°
2026-04-21 03:15 5.35406 162.95566 14 ft 15 kts 120°
2026-04-21 03:15 5.35368 162.95577 14 ft 0 kts 216°
2026-04-21 03:16 5.35367 162.95577 14 ft 0 kts 216°